Погода в Валамазе

Россия / Удмуртская Республика     57°32′25″N   52°05′58″E
темп.,
°C
ветер,
м/с
пор.,
м/с
влажн.,
%
обл.,
%
осадки,
мм/ч
давл.,
гПа
погр.,
м
25 февраля, чт
чт2501:00−27ссз12970 0.0 103319
04:00−28з11970 0.0 103319
07:00−29ю119827 0.0 103219
10:00−24ю239417 0.0 1030189
13:00−18ююв358728 0.0 1027372
16:00−17ююв478759 0.0 1025465
19:00−21юв499489 0.0 1023316
22:00−23юв399586 0.0 1023263
26 февраля, пт
пт2601:00−23юв389695 0.1 1022280
04:00−24юв379797 0.1 1023230
07:00−25юв3797100 0.0 1022237
10:00−22юв3894100 0.0 1021332
13:00−17юв4889100 0.0 1019510
16:00−16юв5990100 0.1 1018549
19:00−19юв51294100 0.0 1015495
22:00−19юв61493100 0.1 1012520
27 февраля, сб
сб2701:00−18юв61491100 0.0 1007558
04:00−17юв61395100 1.6 1005628
07:00−16вюв51295100 1.8 1003689
10:00−14вюв51093100 3.3 1002600
13:00−11вюв5988100 0.3 1002659
16:00−10в4890100 0.5 1003713
19:00−12всв41092100 0.2 1003514
22:00−14всв499397 0.3 1004411
28 февраля, вс
вс2801:00−15всв499395 0.1 1005394
04:00−17св489397 0.2 1007379
07:00−18св4895100 0.1 1008355
10:00−18св479196 0.2 1009342
13:00−15ссв478887 0.0 1011485
16:00−14ссв478894 0.0 1012577
19:00−18ссв3894100 0.0 1014215
22:00−20с259659 0.0 1016129
1 марта, пн
пн101:00−21с35970 0.0 101896
04:00−22с23970 0.0 101976
07:00−23с23970 0.0 102041
10:00−17ссз12910 0.0 1020203
13:00−12з228481 0.0 1019388
16:00−11зюз358879 0.0 1017435
19:00−14юз499492 0.0 1014318
22:00−13ююз4109496 0.1 1010353